Location: Zagreb
(45.8000°N, 16.0000°E)
Time: 20:05:17
(UTC+02:00)

SR - Pass Details

Date: 15 August 2020
Orbit: 583 x 873 km, 66.7° (Epoch: 28 September)

Event Time Altitude Azimuth Distance (km) Brightness Sun altitude
Rises 19:55:59 0° 166° (SSE) 2,973 ? 0.4°
Reaches altitude 10° 19:59:10 10° 144° (SE) 2,013 ? -0.1°
Maximum altitude 20:01:45 15° 109° (ESE) 1,663 ? -0.5°
Drops below altitude 10° 20:04:17 10° 73° (ENE) 1,953 ? -0.9°
Sets 20:07:17 0° 50° (NE) 2,833 ? -1.4°
